Location: Les Martinières
(47.2667°N, 1.4410°E)
Time: 03:39:08
(UTC+00:00)

CZ-2C R/B - Pass Details

Date: 15 May 2026
Orbit: 630 x 690 km, 98.1° (Epoch: 8 June)

Event Time Altitude Azimuth Distance (km) Brightness Sun altitude
Rises 22:27:36 0° 20° (NNE) 2,963 7.8 -21.1°
Reaches altitude 10° 22:29:55 10° 28° (NNE) 2,057 6.8 -21.2°
Maximum altitude 22:34:09 40° 98° (E) 968 4.3 -21.5°
Enters shadow 22:34:17 40° 103° (ESE) 970 4.2 -21.5°
